Time,TemperatureF,DewpointF,PressureIn,WindDirection,WindDirectionDegrees,WindSpeedMPH,WindSpeedGustMPH,Humidity,HourlyPrecipIn,Conditions,Clouds,dailyrainin,SoftwareType,DateUTC
2013-05-19 00:03:00,67.0,52.0,30.04,WSW,252,1.0,4.0,59,0.00,,,0.00,,2013-05-19 04:03:00,
2013-05-19 00:12:00,67.0,52.0,30.04,WSW,252,1.0,4.0,59,0.00,,,0.00,,2013-05-19 04:12:00,
2013-05-19 00:23:00,67.0,53.0,30.04,South,178,1.0,4.0,60,0.00,,,0.00,,2013-05-19 04:23:00,
2013-05-19 00:33:00,67.0,54.0,30.04,West,277,3.0,6.0,62,0.00,,,0.00,,2013-05-19 04:33:00,
2013-05-19 00:42:00,67.0,54.0,30.04,West,277,3.0,6.0,62,0.00,,,0.00,,2013-05-19 04:42:00,
2013-05-19 00:52:00,67.0,55.0,30.04,SW,226,2.0,5.0,66,0.00,,,0.00,,2013-05-19 04:52:00,
2013-05-19 01:02:00,67.0,56.0,30.04,WSW,254,2.0,6.0,67,0.00,,,0.00,,2013-05-19 05:02:00,
2013-05-19 01:12:00,67.0,56.0,30.04,WSW,254,2.0,6.0,67,0.00,,,0.00,,2013-05-19 05:12:00,
2013-05-19 01:22:00,67.0,56.0,30.04,SW,223,2.0,6.0,69,0.00,,,0.00,,2013-05-19 05:22:00,
2013-05-19 01:32:00,67.0,57.0,30.04,NW,321,2.0,9.0,71,0.00,,,0.00,,2013-05-19 05:32:00,
2013-05-19 01:42:00,66.0,57.0,30.03,ESE,109,2.0,8.0,73,0.00,,,0.00,,2013-05-19 05:42:00,
2013-05-19 01:51:00,66.0,57.0,30.03,ESE,109,2.0,8.0,73,0.00,,,0.00,,2013-05-19 05:51:00,
2013-05-19 02:02:00,66.0,58.0,30.03,NNE,14,1.0,7.0,75,0.00,,,0.00,,2013-05-19 06:02:00,
2013-05-19 02:12:00,66.0,58.0,30.03,NNE,14,1.0,7.0,75,0.00,,,0.00,,2013-05-19 06:12:00,
2013-05-19 02:21:00,66.0,59.0,30.03,East,80,2.0,8.0,77,0.00,,,0.00,,2013-05-19 06:21:00,
2013-05-19 02:32:00,66.0,59.0,30.03,ESE,119,1.0,3.0,78,0.00,,,0.00,,2013-05-19 06:32:00,
2013-05-19 02:42:00,66.0,59.0,30.03,WSW,256,2.0,6.0,79,0.00,,,0.00,,2013-05-19 06:42:00,
2013-05-19 02:52:00,66.0,59.0,30.03,WSW,256,2.0,6.0,79,0.00,,,0.00,,2013-05-19 06:52:00,
2013-05-19 03:01:00,66.0,60.0,30.03,ENE,67,2.0,8.0,80,0.00,,,0.00,,2013-05-19 07:01:00,
2013-05-19 03:11:00,66.0,60.0,30.03,ENE,67,2.0,8.0,80,0.00,,,0.00,,2013-05-19 07:11:00,
2013-05-19 03:21:00,66.0,60.0,30.03,SW,217,2.0,7.0,80,0.00,,,0.00,,2013-05-19 07:21:00,
2013-05-19 03:32:00,65.0,59.0,30.02,SE,142,1.0,6.0,81,0.00,,,0.00,,2013-05-19 07:32:00,
2013-05-19 03:42:00,65.0,59.0,30.02,SE,142,1.0,6.0,81,0.00,,,0.00,,2013-05-19 07:42:00,
2013-05-19 03:52:00,65.0,59.0,30.02,WSW,245,2.0,6.0,82,0.00,,,0.00,,2013-05-19 07:52:00,
2013-05-19 04:02:00,64.0,59.0,30.02,SE,127,1.0,5.0,83,0.00,,,0.00,,2013-05-19 08:02:00,
2013-05-19 04:12:00,64.0,59.0,30.02,SE,127,1.0,5.0,83,0.00,,,0.00,,2013-05-19 08:12:00,
2013-05-19 04:22:00,64.0,59.0,30.02,WSW,256,2.0,5.0,84,0.00,,,0.00,,2013-05-19 08:22:00,
2013-05-19 04:32:00,64.0,59.0,30.02,ENE,62,1.0,8.0,85,0.00,,,0.00,,2013-05-19 08:32:00,
2013-05-19 04:42:00,64.0,59.0,30.02,ENE,62,1.0,8.0,85,0.00,,,0.00,,2013-05-19 08:42:00,
2013-05-19 04:52:00,63.0,59.0,30.02,WSW,255,2.0,7.0,86,0.00,,,0.00,,2013-05-19 08:52:00,
2013-05-19 05:02:00,63.0,59.0,30.03,SE,142,2.0,7.0,87,0.00,,,0.00,,2013-05-19 09:02:00,
2013-05-19 05:12:00,63.0,59.0,30.03,SE,142,2.0,7.0,87,0.00,,,0.00,,2013-05-19 09:12:00,
2013-05-19 05:21:00,63.0,59.0,30.03,WSW,249,3.0,9.0,88,0.00,,,0.00,,2013-05-19 09:21:00,
2013-05-19 05:32:00,62.0,58.0,30.03,WSW,242,2.0,9.0,88,0.00,,,0.00,,2013-05-19 09:32:00,
2013-05-19 05:43:00,62.0,58.0,30.03,WSW,242,2.0,9.0,88,0.00,,,0.00,,2013-05-19 09:43:00,
2013-05-19 05:53:00,62.0,59.0,30.05,South,191,1.0,6.0,89,0.00,,,0.00,,2013-05-19 09:53:00,
2013-05-19 06:02:00,62.0,59.0,30.05,WSW,238,2.0,5.0,89,0.00,,,0.00,,2013-05-19 10:02:00,
2013-05-19 06:12:00,62.0,59.0,30.05,WNW,300,2.0,9.0,89,0.00,,,0.00,,2013-05-19 10:12:00,
2013-05-19 06:23:00,62.0,59.0,30.05,WNW,300,2.0,9.0,89,0.00,,,0.00,,2013-05-19 10:23:00,
2013-05-19 06:33:00,62.0,59.0,30.06,NNW,338,2.0,9.0,89,0.00,,,0.00,,2013-05-19 10:33:00,
2013-05-19 06:42:00,62.0,59.0,30.06,NNW,338,2.0,9.0,89,0.00,,,0.00,,2013-05-19 10:42:00,
2013-05-19 06:53:00,62.0,59.0,30.06,ENE,72,2.0,6.0,90,0.00,,,0.00,,2013-05-19 10:53:00,
2013-05-19 07:02:00,62.0,59.0,30.07,WNW,291,3.0,7.0,90,0.00,,,0.00,,2013-05-19 11:02:00,
2013-05-19 07:12:00,62.0,59.0,30.07,WNW,291,3.0,7.0,90,0.00,,,0.00,,2013-05-19 11:12:00,
2013-05-19 07:21:00,62.0,59.0,30.07,SW,236,2.0,7.0,89,0.00,,,0.00,,2013-05-19 11:21:00,
2013-05-19 07:32:00,62.0,59.0,30.07,West,280,2.0,9.0,89,0.00,,,0.00,,2013-05-19 11:32:00,
2013-05-19 07:42:00,62.0,59.0,30.07,West,280,2.0,9.0,89,0.00,,,0.00,,2013-05-19 11:42:00,
2013-05-19 07:52:00,62.0,58.0,30.07,North,356,4.0,9.0,88,0.00,,,0.00,,2013-05-19 11:52:00,
2013-05-19 08:01:00,63.0,59.0,30.07,NW,318,1.0,6.0,88,0.00,,,0.00,,2013-05-19 12:01:00,
2013-05-19 08:11:00,63.0,59.0,30.07,NW,318,1.0,6.0,88,0.00,,,0.00,,2013-05-19 12:11:00,
2013-05-19 08:22:00,63.0,59.0,30.07,North,357,4.0,10.0,87,0.00,,,0.00,,2013-05-19 12:22:00,
2013-05-19 08:32:00,64.0,59.0,30.07,WSW,253,2.0,11.0,85,0.00,,,0.00,,2013-05-19 12:32:00,
2013-05-19 08:42:00,64.0,59.0,30.07,WSW,253,2.0,11.0,85,0.00,,,0.00,,2013-05-19 12:42:00,
2013-05-19 08:52:00,65.0,60.0,30.07,ESE,117,1.0,8.0,85,0.00,,,0.00,,2013-05-19 12:52:00,
2013-05-19 09:01:00,65.0,60.0,30.07,North,5,2.0,9.0,84,0.00,,,0.00,,2013-05-19 13:01:00,
2013-05-19 09:11:00,65.0,60.0,30.07,North,5,2.0,9.0,84,0.00,,,0.00,,2013-05-19 13:11:00,
2013-05-19 09:21:00,66.0,60.0,30.07,West,276,3.0,10.0,82,0.00,,,0.00,,2013-05-19 13:21:00,
2013-05-19 09:32:00,68.0,61.0,30.06,WNW,301,2.0,8.0,78,0.00,,,0.00,,2013-05-19 13:32:00,
2013-05-19 09:42:00,68.0,61.0,30.06,WNW,301,2.0,8.0,78,0.00,,,0.00,,2013-05-19 13:42:00,
2013-05-19 09:52:00,69.0,61.0,30.06,NNE,22,3.0,11.0,77,0.00,,,0.00,,2013-05-19 13:52:00,
2013-05-19 10:02:00,70.0,62.0,30.06,NNE,31,4.0,9.0,75,0.00,,,0.00,,2013-05-19 14:02:00,
2013-05-19 10:11:00,70.0,62.0,30.06,NNE,31,4.0,9.0,75,0.00,,,0.00,,2013-05-19 14:11:00,
2013-05-19 10:21:00,71.0,62.0,30.05,WSW,256,3.0,8.0,72,0.00,,,0.00,,2013-05-19 14:21:00,
2013-05-19 10:32:00,71.0,62.0,30.05,North,3,3.0,9.0,74,0.00,,,0.00,,2013-05-19 14:32:00,
2013-05-19 10:42:00,71.0,62.0,30.05,North,3,3.0,9.0,74,0.00,,,0.00,,2013-05-19 14:42:00,
2013-05-19 10:52:00,72.0,62.0,30.04,NW,315,4.0,10.0,72,0.00,,,0.00,,2013-05-19 14:52:00,
2013-05-19 11:01:00,74.0,63.0,30.04,NNE,14,4.0,10.0,69,0.00,,,0.00,,2013-05-19 15:01:00,
2013-05-19 11:12:00,74.0,63.0,30.04,NNE,14,4.0,10.0,69,0.00,,,0.00,,2013-05-19 15:12:00,
2013-05-19 11:22:00,74.0,63.0,30.04,North,9,3.0,10.0,69,0.00,,,0.00,,2013-05-19 15:22:00,
2013-05-19 11:33:00,75.0,64.0,30.03,ENE,64,2.0,9.0,68,0.00,,,0.00,,2013-05-19 15:33:00,
2013-05-19 11:43:00,75.0,64.0,30.03,ENE,64,2.0,9.0,68,0.00,,,0.00,,2013-05-19 15:43:00,
2013-05-19 11:53:00,76.0,63.0,30.03,WSW,249,2.0,10.0,65,0.00,,,0.00,,2013-05-19 15:53:00,
2013-05-19 12:03:00,78.0,65.0,30.02,SSW,196,2.0,10.0,64,0.00,,,0.00,,2013-05-19 16:03:00,
2013-05-19 12:12:00,78.0,65.0,30.02,SSW,196,2.0,10.0,64,0.00,,,0.00,,2013-05-19 16:12:00,
2013-05-19 12:23:00,78.0,65.0,30.02,WSW,249,2.0,10.0,64,0.00,,,0.00,,2013-05-19 16:23:00,
2013-05-19 12:32:00,79.0,64.0,30.01,NW,321,3.0,8.0,61,0.00,,,0.00,,2013-05-19 16:32:00,
2013-05-19 12:42:00,79.0,64.0,30.01,NW,321,3.0,8.0,61,0.00,,,0.00,,2013-05-19 16:42:00,
2013-05-19 12:52:00,80.0,64.0,30.01,NNE,15,2.0,8.0,59,0.00,,,0.00,,2013-05-19 16:52:00,
2013-05-19 13:02:00,80.0,64.0,30.01,SSW,209,2.0,9.0,58,0.00,,,0.00,,2013-05-19 17:02:00,
2013-05-19 13:12:00,80.0,64.0,30.01,SSW,209,2.0,9.0,58,0.00,,,0.00,,2013-05-19 17:12:00,
2013-05-19 13:22:00,80.0,63.0,30.02,North,356,4.0,10.0,57,0.00,,,0.00,,2013-05-19 17:22:00,
2013-05-19 13:32:00,81.0,64.0,30.02,WSW,247,2.0,8.0,56,0.00,,,0.00,,2013-05-19 17:32:00,
2013-05-19 13:42:00,81.0,64.0,30.02,WSW,247,2.0,8.0,56,0.00,,,0.00,,2013-05-19 17:42:00,
2013-05-19 13:52:00,80.0,63.0,30.01,NW,318,2.0,6.0,57,0.00,,,0.00,,2013-05-19 17:52:00,
2013-05-19 14:02:00,80.0,64.0,30.00,WSW,249,3.0,8.0,58,0.00,,,0.00,,2013-05-19 18:02:00,
2013-05-19 14:12:00,80.0,64.0,30.00,WSW,249,3.0,8.0,58,0.00,,,0.00,,2013-05-19 18:12:00,
2013-05-19 14:22:00,81.0,63.0,29.99,NNW,331,3.0,8.0,55,0.00,,,0.00,,2013-05-19 18:22:00,
2013-05-19 14:32:00,82.0,63.0,29.98,North,354,3.0,7.0,53,0.00,,,0.00,,2013-05-19 18:32:00,
2013-05-19 14:43:00,82.0,63.0,29.98,North,354,3.0,7.0,53,0.00,,,0.00,,2013-05-19 18:43:00,
2013-05-19 14:53:00,82.0,63.0,29.97,ENE,76,2.0,7.0,53,0.00,,,0.00,,2013-05-19 18:53:00,
2013-05-19 15:01:00,83.0,63.0,29.96,North,351,3.0,10.0,51,0.00,,,0.00,,2013-05-19 19:01:00,
2013-05-19 15:11:00,83.0,63.0,29.96,North,351,3.0,10.0,51,0.00,,,0.00,,2013-05-19 19:11:00,
2013-05-19 15:22:00,83.0,62.0,29.96,NW,316,2.0,11.0,49,0.00,,,0.00,,2013-05-19 19:22:00,
2013-05-19 15:32:00,84.0,63.0,29.96,NNE,31,2.0,8.0,49,0.00,,,0.00,,2013-05-19 19:32:00,
2013-05-19 15:42:00,84.0,63.0,29.96,NNE,31,2.0,8.0,49,0.00,,,0.00,,2013-05-19 19:42:00,
2013-05-19 15:52:00,82.0,62.0,29.96,ENE,67,2.0,6.0,51,0.00,,,0.00,,2013-05-19 19:52:00,
2013-05-19 16:02:00,82.0,62.0,29.96,ENE,67,2.0,6.0,51,0.00,,,0.00,,2013-05-19 20:02:00,
2013-05-19 16:11:00,82.0,62.0,29.96,ENE,67,2.0,6.0,51,0.00,,,0.00,,2013-05-19 20:11:00,
2013-05-19 16:21:00,82.0,63.0,29.96,NE,45,1.0,7.0,52,0.00,,,0.00,,2013-05-19 20:21:00,
2013-05-19 16:32:00,81.0,62.0,29.96,NNE,22,3.0,6.0,53,0.00,,,0.00,,2013-05-19 20:32:00,
2013-05-19 16:42:00,81.0,62.0,29.96,NNE,22,3.0,6.0,53,0.00,,,0.00,,2013-05-19 20:42:00,
2013-05-19 16:52:00,82.0,63.0,29.96,ENE,58,2.0,6.0,53,0.00,,,0.00,,2013-05-19 20:52:00,
2013-05-19 17:02:00,82.0,63.0,29.96,North,354,2.0,9.0,53,0.00,,,0.00,,2013-05-19 21:02:00,
2013-05-19 17:11:00,82.0,63.0,29.96,North,354,2.0,9.0,53,0.00,,,0.00,,2013-05-19 21:11:00,
2013-05-19 17:22:00,81.0,63.0,29.96,NNW,348,3.0,7.0,55,0.00,,,0.00,,2013-05-19 21:22:00,
2013-05-19 17:32:00,80.0,62.0,29.96,NNW,332,2.0,9.0,55,0.00,,,0.00,,2013-05-19 21:32:00,
2013-05-19 17:43:00,80.0,62.0,29.96,NNW,332,2.0,9.0,55,0.00,,,0.00,,2013-05-19 21:43:00,
2013-05-19 17:53:00,81.0,64.0,29.96,NNE,13,3.0,7.0,56,0.00,,,0.00,,2013-05-19 21:53:00,
2013-05-19 18:03:00,81.0,64.0,29.95,SW,219,2.0,6.0,56,0.00,,,0.00,,2013-05-19 22:03:00,
2013-05-19 18:12:00,81.0,64.0,29.95,SW,219,2.0,6.0,56,0.00,,,0.00,,2013-05-19 22:12:00,
2013-05-19 18:23:00,80.0,63.0,29.95,ENE,70,1.0,6.0,56,0.00,,,0.00,,2013-05-19 22:23:00,
2013-05-19 18:33:00,80.0,63.0,29.95,SE,146,1.0,6.0,56,0.00,,,0.00,,2013-05-19 22:33:00,
2013-05-19 18:42:00,80.0,63.0,29.95,SE,146,1.0,6.0,56,0.00,,,0.00,,2013-05-19 22:42:00,
2013-05-19 18:53:00,81.0,63.0,29.94,SSE,166,1.0,2.0,55,0.00,,,0.00,,2013-05-19 22:53:00,
2013-05-19 19:02:00,81.0,63.0,29.94,WSW,254,1.0,7.0,54,0.00,,,0.00,,2013-05-19 23:02:00,
2013-05-19 19:12:00,81.0,63.0,29.94,WSW,254,1.0,7.0,54,0.00,,,0.00,,2013-05-19 23:12:00,
2013-05-19 19:22:00,81.0,63.0,29.94,WSW,255,3.0,6.0,54,0.00,,,0.00,,2013-05-19 23:22:00,
2013-05-19 19:32:00,80.0,63.0,29.94,SSE,165,1.0,9.0,57,0.00,,,0.00,,2013-05-19 23:32:00,
2013-05-19 19:42:00,79.0,63.0,29.94,SE,141,0.0,4.0,58,0.00,,,0.00,,2013-05-19 23:42:00,
2013-05-19 19:52:00,79.0,63.0,29.94,SE,141,0.0,4.0,58,0.00,,,0.00,,2013-05-19 23:52:00,
2013-05-19 20:02:00,78.0,63.0,29.94,SSE,153,1.0,4.0,60,0.00,,,0.00,,2013-05-20 00:02:00,
2013-05-19 20:11:00,78.0,63.0,29.94,SSE,153,1.0,4.0,60,0.00,,,0.00,,2013-05-20 00:11:00,
2013-05-19 20:22:00,78.0,63.0,29.95,WSW,250,1.0,4.0,61,0.00,,,0.00,,2013-05-20 00:22:00,
2013-05-19 20:32:00,77.0,63.0,29.95,East,79,1.0,4.0,63,0.00,,,0.00,,2013-05-20 00:32:00,
2013-05-19 20:42:00,77.0,63.0,29.95,East,79,1.0,4.0,63,0.00,,,0.00,,2013-05-20 00:42:00,
2013-05-19 20:52:00,76.0,63.0,29.95,SSE,153,0.0,3.0,64,0.00,,,0.00,,2013-05-20 00:52:00,
2013-05-19 21:01:00,76.0,63.0,29.95,SSE,153,0.0,3.0,64,0.00,,,0.00,,2013-05-20 01:01:00,
2013-05-19 21:11:00,76.0,63.0,29.95,SSE,153,0.0,3.0,64,0.00,,,0.00,,2013-05-20 01:11:00,
2013-05-19 21:21:00,74.0,63.0,29.97,ESE,121,1.0,3.0,68,0.00,,,0.00,,2013-05-20 01:21:00,
2013-05-19 21:32:00,74.0,63.0,29.97,East,92,1.0,4.0,68,0.00,,,0.00,,2013-05-20 01:32:00,
2013-05-19 21:42:00,74.0,63.0,29.97,East,92,1.0,4.0,68,0.00,,,0.00,,2013-05-20 01:42:00,
2013-05-19 21:52:00,74.0,63.0,29.97,East,92,1.0,4.0,68,0.00,,,0.00,,2013-05-20 01:52:00,
2013-05-19 22:02:00,74.0,63.0,29.97,SSW,211,2.0,5.0,68,0.00,,,0.00,,2013-05-20 02:02:00,
2013-05-19 22:12:00,74.0,63.0,29.97,SSW,211,2.0,5.0,68,0.00,,,0.00,,2013-05-20 02:12:00,
2013-05-19 22:21:00,74.0,63.0,29.98,SE,132,1.0,5.0,69,0.00,,,0.00,,2013-05-20 02:21:00,
2013-05-19 22:32:00,73.0,63.0,29.98,WNW,284,1.0,4.0,71,0.00,,,0.00,,2013-05-20 02:32:00,
2013-05-19 22:42:00,73.0,63.0,29.98,WNW,284,1.0,4.0,71,0.00,,,0.00,,2013-05-20 02:42:00,
2013-05-19 22:51:00,73.0,63.0,29.98,ESE,113,1.0,8.0,72,0.00,,,0.00,,2013-05-20 02:51:00,
2013-05-19 23:02:00,72.0,63.0,29.97,North,354,3.0,8.0,73,0.00,,,0.00,,2013-05-20 03:02:00,
2013-05-19 23:11:00,72.0,63.0,29.97,North,4,2.0,7.0,74,0.00,,,0.00,,2013-05-20 03:11:00,
2013-05-19 23:21:00,72.0,63.0,29.97,North,4,2.0,7.0,74,0.00,,,0.00,,2013-05-20 03:21:00,
2013-05-19 23:33:00,72.0,64.0,29.97,North,355,4.0,10.0,75,0.00,,,0.00,,2013-05-20 03:33:00,
2013-05-19 23:43:00,71.0,63.0,29.96,North,8,2.0,10.0,76,0.00,,,0.00,,2013-05-20 03:43:00,
2013-05-19 23:52:00,71.0,63.0,29.96,North,8,2.0,10.0,76,0.00,,,0.00,,2013-05-20 03:52:00,